Weather History for Rochester, MN

Change the Weather History Date:

Thursday, April 17, 2014

  Actual Average Record
Temperature  
Mean Temperature 37 °F 48 °F  
Max Temperature 44 °F 58 °F 84 °F (1985)
Min Temperature 30 °F 37 °F 17 °F (1983)
Degree Days  
Heating Degree Days 28 18  
Month to date heating degree days 428 363  
Since 1 July heating degree days 8408 7235  
Cooling Degree Days 0 0  
Month to date cooling degree days 0 0  
Year to date cooling degree days 0 0  
Moisture  
Dew Point 30 °F    
Average Humidity 81    
Maximum Humidity 92    
Minimum Humidity 70    
Precipitation  
Precipitation 0.01 in 0.11 in 1.42 in (1959)
Month to date precipitation 2.15 1.69  
Year to date precipitation 6.06 5.26  
Snow  
Snow 0.00 in 0.10 in 3.00 in (1910)
Month to date snowfall 5.1 2.3  
Since 1 July snowfall 59.1 50.9  
Snow Depth 0.00 in    
Sea Level Pressure  
Sea Level Pressure 30.13 in    
Wind  
Wind Speed 12 mph (NW)    
Max Wind Speed 26 mph    
Max Gust Speed 30 mph    
Visibility 5 miles    
Events Fog , Rain    
T = Trace of Precipitation, MM = Missing Value Source: NWS Daily Summary

Daily Weather History Graph

Daily Weather History Graph

Search for Another Location

Airport:

Trip Planner

Search our weather history database for the weather conditions in past years. The results will help you decide how hot, cold, wet, or windy it might be!

Date:

Astronomy

Apr. 17, 2014 Rise Set
Actual Time 6:23 AM CDT 7:56 PM CDT
Civil Twilight 5:53 AM CDT 8:26 PM CDT
Nautical Twilight 5:16 AM CDT 9:03 PM CDT
Astronomical Twilight 4:37 AM CDT 9:42 PM CDT
Moon 10:46 PM CDT (4/17) 7:52 AM CDT (4/17)
Length of Visible Light 14h 33m
Length of Day
13h 32m
Waning Gibbous, 93% of the Moon is Illuminated
Apr 17
Waning Gibbous
Apr 22
Last Quarter
Apr 29
New
May 6
First Quarter
May 14
Full

Hourly Weather History & Observations

Time (CDT) Temp. Windchill Dew Point Humidity Pressure Visibility Wind Dir Wind Speed Gust Speed Precip Events Conditions
12:54 AM 44.1 °F 36.8 °F 33.1 °F 65% 29.84 in 10.0 mi SSE 16.1 mph 25.3 mph 0.00 in Rain Light Rain
1:54 AM 42.1 °F 36.1 °F 35.1 °F 76% 29.85 in 10.0 mi South 10.4 mph - 0.01 in Rain Light Rain
2:10 AM 42.1 °F 36.6 °F 35.1 °F 76% 29.83 in 10.0 mi South 9.2 mph - 0.00 in   Overcast
2:36 AM 41.0 °F 32.5 °F 37.0 °F 86% 29.83 in 9.0 mi West 17.3 mph - 0.00 in   Overcast
2:54 AM 39.0 °F 29.3 °F 36.0 °F 89% 29.87 in 3.0 mi West 19.6 mph - 0.00 in   Overcast
3:03 AM 39.0 °F 29.3 °F 37.0 °F 93% 29.85 in 1.8 mi WNW 19.6 mph - N/A   Overcast
3:10 AM 39.0 °F 29.3 °F 36.0 °F 89% 29.86 in 0.8 mi WNW 19.6 mph 26.5 mph N/A   Overcast
3:54 AM 36.0 °F 24.7 °F 34.0 °F 93% 29.93 in 0.5 mi NW 21.9 mph - N/A Fog Fog
4:50 AM 33.8 °F 21.9 °F 30.2 °F 87% 29.96 in 1.0 mi NW 21.9 mph - N/A   Overcast
4:54 AM 33.1 °F 20.9 °F 30.9 °F 92% 29.99 in 1.0 mi NW 21.9 mph - N/A   Overcast
5:17 AM 32.0 °F 19.2 °F 30.0 °F 92% 29.98 in 1.8 mi NW 23.0 mph - N/A   Overcast
5:28 AM 32.0 °F 20.5 °F 30.0 °F 92% 30.00 in 2.0 mi NW 18.4 mph - N/A   Overcast
5:54 AM 32.0 °F 20.1 °F 28.9 °F 88% 30.04 in 2.5 mi NW 19.6 mph - N/A   Overcast
6:37 AM 30.9 °F 19.8 °F 28.9 °F 92% 30.05 in 3.0 mi NW 16.1 mph - N/A   Overcast
6:54 AM 30.9 °F 20.7 °F 28.9 °F 92% 30.10 in 3.0 mi NW 13.8 mph - N/A   Overcast
7:14 AM 30.9 °F 19.4 °F 28.9 °F 92% 30.08 in 1.8 mi NW 17.3 mph - N/A   Overcast
7:39 AM 30.9 °F 19.8 °F 28.9 °F 92% 30.09 in 1.2 mi NW 16.1 mph - N/A   Overcast
7:54 AM 30.9 °F 18.4 °F 28.9 °F 92% 30.13 in 1.5 mi NW 20.7 mph - N/A   Overcast
8:03 AM 30.9 °F 18.4 °F 28.9 °F 92% 30.10 in 1.0 mi NW 20.7 mph - N/A   Overcast
8:45 AM 30.9 °F 20.2 °F 28.9 °F 92% 30.14 in 1.5 mi NW 15.0 mph - N/A   Overcast
8:54 AM 32.0 °F 21.6 °F 28.9 °F 88% 30.19 in 1.5 mi WNW 15.0 mph - N/A   Overcast
9:04 AM 32.0 °F 22.5 °F 28.9 °F 88% 30.16 in 2.5 mi NW 12.7 mph - N/A   Overcast
9:54 AM 32.0 °F 20.5 °F 28.9 °F 88% 30.22 in 2.5 mi NW 18.4 mph - N/A   Overcast
10:01 AM 32.0 °F 22.1 °F 30.0 °F 92% 30.18 in 3.0 mi NW 13.8 mph - N/A   Overcast
10:54 AM 33.8 °F 23.2 °F 30.2 °F 87% 30.21 in 4.0 mi NW 17.3 mph - N/A   Overcast
11:54 AM 33.1 °F 22.6 °F 28.9 °F 85% 30.27 in 5.0 mi NW 16.1 mph - N/A   Overcast
12:54 PM 33.1 °F 22.6 °F 28.9 °F 85% 30.27 in 6.0 mi NW 16.1 mph - N/A   Overcast
1:18 PM 34.0 °F 25.0 °F 28.9 °F 82% 30.24 in 7.0 mi NW 12.7 mph - N/A   Overcast
1:54 PM 34.0 °F 26.0 °F 28.9 °F 82% 30.30 in 7.0 mi NW 10.4 mph - N/A   Overcast
2:54 PM 35.1 °F 27.4 °F 28.9 °F 78% 30.31 in 8.0 mi NW 10.4 mph - N/A   Overcast
3:38 PM 36.0 °F 27.5 °F 28.9 °F 76% 30.27 in 7.0 mi NW 12.7 mph - N/A   Overcast
3:54 PM 37.0 °F 28.1 °F 28.9 °F 73% 30.31 in 8.0 mi NW 15.0 mph - N/A   Overcast
4:54 PM 37.0 °F 28.9 °F 28.9 °F 73% 30.32 in 8.0 mi NNW 12.7 mph - N/A   Overcast
5:54 PM 37.0 °F 29.3 °F 28.9 °F 73% 30.32 in 8.0 mi North 11.5 mph - N/A   Overcast
6:54 PM 36.0 °F 29.6 °F 27.0 °F 70% 30.32 in 8.0 mi North 8.1 mph - N/A   Overcast
7:54 PM 35.1 °F 31.0 °F 27.0 °F 72% 30.33 in 8.0 mi NNE 4.6 mph - N/A   Overcast
8:23 PM 33.1 °F 28.7 °F 26.1 °F 75% 30.28 in 9.0 mi North 4.6 mph - N/A   Scattered Clouds
8:54 PM 33.1 °F - 26.1 °F 75% 30.35 in 9.0 mi Calm Calm - N/A   Clear
9:54 PM 32.0 °F - 26.1 °F 79% 30.35 in 7.0 mi Calm Calm - N/A   Clear
10:54 PM 32.0 °F - 26.1 °F 79% 30.35 in 6.0 mi Calm Calm - N/A   Haze
11:54 PM 30.9 °F 27.5 °F 26.1 °F 82% 30.35 in 6.0 mi SSW 3.5 mph - N/A   Haze